Flag for Germany Weather past 2 weeks in Dietzenbach, Hesse, Germany

34 °F

Light rain. Fog.

Feels Like: 26 °F
Forecast: 30 / 38 °F
Wind: 10 mph from South

Location: Frankfurt-M-Flughafen Airport

Current Time: Nov 25, 2015 at 7:14:33 AM

Latest Report: Nov 25, 2015 at 6:20 AM

Visibility: 3 mi

Pressure: 29.77 "Hg

Humidity: 93%

Dew point: 32 °F

Location of DietzenbachLocation

Historic Weather in Dietzenbach — Graph


Dietzenbach temperature yesterday

Maximum temperature yesterday: 37 °F (at 2:20 PM)
Minimum temperature yesterday: 27 °F (at 2:20 AM)
Average temperature yesterday: 33 °F

Past Weeks' High & Low Weather Summary

High61 °F (Nov 18, 12:50 AM)100% (Nov 13, 12:20 AM)30.36 "Hg (Nov 13, 12:20 AM)
Low27 °F (Nov 24, 2:20 AM)51% (Nov 18, 12:50 PM)29.39 "Hg (Nov 21, 2:20 PM)
Average48 °F82%30.03 "Hg
* Reported Nov 10 5:20 AM — Nov 25 5:20 AM, Dietzenbach, Weather by CustomWeather, © 2015

Note: Actual official high and low records may vary slightly from our data, if they occured in-between our weather recording intervals... More about our weather records


Dietzenbach weather history for previous 24 hours

Time TempWeatherWind HumidityBarometerVisibility
5:20 AM
Wed, Nov 25
34 °FLight rain. Passing clouds.12 mph93%29.77 "Hg3 mi
4:20 AM34 °FLight snow. Passing clouds.8 mph93%29.80 "Hg3 mi
3:50 AM34 °FLight snow. Passing clouds.8 mph93%29.80 "Hg3 mi
3:20 AM32 °FLight snow. Passing clouds.8 mph100%29.80 "Hg3 mi
2:50 AM32 °FLight snow. Passing clouds.8 mph100%29.80 "Hg3 mi
2:20 AM32 °FLight snow. Passing clouds.7 mph100%29.83 "Hg2 mi
1:20 AM32 °FSnow. Passing clouds.8 mph100%29.83 "Hg2 mi
12:50 AM32 °FSnow. Passing clouds.9 mph100%29.86 "Hg1 mi
12:20 AM32 °FSnow. Passing clouds.8 mph100%29.86 "Hg1 mi
11:50 PM
Tue, Nov 24
32 °FSnow. Passing clouds.9 mph100%29.86 "Hg2 mi
11:20 PM32 °FSnow. Passing clouds.10 mph100%29.89 "Hg1 mi
10:50 PM32 °FSnow. Passing clouds.8 mph100%29.89 "Hg1 mi
10:20 PM34 °FSnow. Mostly cloudy.9 mph93%29.92 "Hg2 mi
9:50 PM34 °FLight rain. Mostly cloudy.10 mph93%29.92 "Hg5 mi
9:20 PM36 °FLight rain. Partly cloudy.10 mph87%29.95 "Hg6 mi
8:50 PM36 °FRain. Partly cloudy.10 mph87%29.95 "Hg4 mi
8:20 PM36 °FLight rain. Partly cloudy.9 mph87%29.98 "HgN/A
7:50 PM36 °FLight rain. Partly cloudy.12 mph81%29.98 "HgN/A
7:20 PM36 °FLight rain. Partly cloudy.9 mph87%29.98 "HgN/A
6:50 PM36 °FLight rain. Partly cloudy.13 mph87%30.01 "HgN/A
6:20 PM37 °FLight rain. Partly cloudy.10 mph75%30.01 "HgN/A
5:50 PM37 °FLight rain. Partly cloudy.9 mph75%30.01 "HgN/A
5:20 PM37 °FPartly cloudy.12 mph75%30.04 "HgN/A
4:50 PM37 °FPartly cloudy.10 mph81%30.04 "HgN/A
4:20 PM37 °FPartly sunny.9 mph81%30.07 "HgN/A
3:50 PM37 °FBroken clouds.9 mph81%30.07 "HgN/A
3:20 PM37 °FBroken clouds.12 mph81%30.07 "HgN/A
2:50 PM37 °FPartly sunny.10 mph81%30.09 "HgN/A
2:20 PM37 °FBroken clouds.8 mph81%30.09 "HgN/A
1:50 PM36 °FPartly sunny.8 mph87%30.12 "HgN/A
1:20 PM36 °FBroken clouds.7 mph87%30.15 "Hg6 mi
12:50 PM34 °FPartly sunny.8 mph93%30.15 "Hg5 mi
12:20 PM34 °FPartly sunny.7 mph93%30.18 "Hg5 mi
11:50 AM34 °FPartly sunny.7 mph93%30.18 "Hg4 mi
11:20 AM32 °FPartly sunny.8 mph100%30.21 "Hg4 mi
10:50 AM32 °FIce fog.10 mph93%30.21 "Hg3 mi
10:20 AM32 °FIce fog.7 mph100%30.21 "Hg1 mi
9:50 AM32 °FIce fog.8 mph100%30.24 "Hg1 mi
9:20 AM32 °FIce fog.7 mph100%30.24 "Hg1 mi
8:50 AM32 °FPartly sunny.7 mph93%30.24 "Hg1 mi
8:20 AM32 °FPartly sunny.7 mph93%30.24 "Hg1 mi
7:50 AM32 °FIce fog.7 mph93%30.24 "Hg1 mi
7:20 AM32 °FIce fog.6 mph93%30.24 "Hg1 mi
Weather by CustomWeather, © 2015

See weather overviewHow to use our weather pages